Location: Central Falls
(41.8900°N, 71.3929°W)
Time: 11:30:31
(UTC+00:00)

A-11 Canister half - Pass Details

Date: 11 December 2023
Orbit: 1512 x 1687 km, 47.2° (Epoch: 20 February)

Event Time Altitude Azimuth Distance (km) Brightness Sun altitude
Rises 01:25:08 0° 197° (SSW) 4,652 11.6 -45.7°
Enters shadow 01:26:40 - 193° (SSW) 4,216 11.3 -46.0°
Reaches altitude 10° 01:28:37 10° 186° (S) 3,687 - -46.4°
Maximum altitude 01:36:17 30° 130° (SE) 2,519 - -47.8°
Drops below altitude 10° 01:44:08 10° 75° (ENE) 3,800 - -49.2°
Sets 01:47:46 0° 65° (ENE) 4,816 - -49.8°
